Preview of NWS' New Version of Forecast
This preview is not operational and should not be used for support decisions.

Regional Weather Roundup (RWR)

Issued by National Weather Service (NWS)

                            
000
ASUS43 KBIS 191902
RWRND 

NORTH DAKOTA REGIONAL WEATHER ROUNDUP
NATIONAL WEATHER SERVICE BISMARCK ND
200 PM CDT WED JUN 19 2019

NOTE: "FAIR" INDICATES FEW OR NO CLOUDS BELOW 12,000 FEET WITH NO
SIGNIFICANT WEATHER AND/OR OBSTRUCTIONS TO VISIBILITY.


NDZ001>003-009>011-017-192000-
NORTHWEST NORTH DAKOTA
  
CITY           SKY/WX    TMP DP  RH WIND       PRES   REMARKS
WILLISTON      CLOUDY    71  53  52 SE16G37   29.75F                  
MINOT          PTSUNNY   74  48  39 SE18G29   29.79F                  
MINOT AFB      PTSUNNY   73  49  42 SE16G25   29.78F                  
$$
 
NDZ018>021-031>035-040>046-192000-
SOUTHWEST NORTH DAKOTA
  
CITY           SKY/WX    TMP DP  RH WIND       PRES   REMARKS
BISMARCK       CLOUDY    59  54  83 SE17      29.80F                  
DICKINSON      CLOUDY    59  55  87 E15       29.76F                  
GARRISON         N/A     61  53  75 SE16      29.81S                  
HETTINGER ARPT CLOUDY    60  56  86 E9        29.76F                  
$$
 
NDZ004>008-012>016-024-026-027-054-192000-
NORTHEAST NORTH DAKOTA
  
CITY           SKY/WX    TMP DP  RH WIND       PRES   REMARKS
GRAND FORKS    CLOUDY    74  47  38 SE7       29.81F                  
GRND FRKS AFB  PTSUNNY   74  49  40 SE12      29.82F                  
DEVILS LAKE    CLOUDY    70  48  45 SE15      29.84F                  
$$
 
NDZ022-023-025-028>030-036>039-047>053-192000-
SOUTHEAST NORTH DAKOTA
  
CITY           SKY/WX    TMP DP  RH WIND       PRES   REMARKS
FARGO          CLOUDY    74  47  38 SE10      29.80F                  
JAMESTOWN      CLOUDY    61  51  70 S10       29.83F                  
$$